This demonstration page uses our WeatherBlox Daily Observations layout. Learn more.

Left ArrowRight Arrow

40.92501, -98.34201

Hourly Observations for June 14, 2020

Temp ( °F °C ) Dew Point ( °F °C ) Humidity (%) Winds ( mph kmh ) Pressure ( in mb ) Visibility ( mi km ) Precip ( " mm )
12:53 am 00:53 Clear 76 24.4 55 12.8 48 48 SE 18 30 29.91 1013 10 16 0.00 0.00
1:53 am 01:53 Clear 75 23.9 55 12.8 50 50 SSE 16 26 29.90 1013 10 16 0.00 0.00
2:53 am 02:53 Clear 74 23.3 55 12.8 52 52 SSE 17 28 29.90 1012 10 16 0.00 0.00
3:53 am 03:53 Clear 73 22.8 54 12.2 51 51 SSE 18 30 29.89 1012 10 16 0.00 0.00
4:53 am 04:53 Clear 72 22.2 54 12.2 53 53 SSE 16 26 29.89 1012 10 16 0.00 0.00
5:53 am 05:53 Clear 70 21.1 54 12.2 57 57 S 17 28 29.90 1012 10 16 0.00 0.00
6:53 am 06:53 Sunny 70 21.1 55 12.8 59 59 S 17 28 29.91 1013 10 16 0.00 0.00
7:53 am 07:53 Sunny 72 22.2 55 12.8 55 55 S 16 26 29.92 1013 10 16 0.00 0.00
8:53 am 08:53 Sunny 76 24.4 55 12.8 48 48 S 20 31 29.93 1014 10 16 0.00 0.00
9:53 am 09:53 Sunny 82 27.8 54 12.2 38 38 SSW 21 33 29.92 1013 10 16 0.00 0.00
10:53 am 10:53 Sunny 86 30 56 13.3 36 36 S 21 33 29.91 1013 10 16 0.00 0.00
11:53 am 11:53 Sunny 88 31.1 54 12.2 31 31 S 22 35 29.91 1013 10 16 0.00 0.00
12:53 pm 12:53 Sunny 92 33.3 55 12.8 29 29 SSW 20 31 29.90 1013 10 16 0.00 0.00
1:53 pm 13:53 Sunny 96 35.6 54 12.2 24 24 S 25 41 29.88 1012 10 16 0.00 0.00
2:53 pm 14:53 Sunny 98 36.7 54 12.2 23 23 S 24 39 29.86 1011 10 16 0.00 0.00
3:53 pm 15:53 Sunny 96 35.6 53 11.7 23 23 S 22 35 29.86 1011 10 16 0.00 0.00
4:53 pm 16:53 Mostly Sunny 95 35 54 12.2 25 25 S 23 37 29.86 1011 10 16 0.00 0.00
5:53 pm 17:53 Sunny 96 35.6 54 12.2 24 24 S 29 46 29.86 1011 10 16 0.00 0.00
6:53 pm 18:53 Sunny 91 32.8 56 13.3 31 31 S 21 33 29.87 1012 10 16 0.00 0.00
7:53 pm 19:53 Sunny 89 31.7 57 13.9 34 34 SSE 24 39 29.89 1012 10 16 0.00 0.00
8:53 pm 20:53 Sunny 86 30 55 12.8 35 35 SSE 20 31 29.90 1013 10 16 0.00 0.00
9:53 pm 21:53 Clear 83 28.3 54 12.2 37 37 SSE 18 30 29.92 1013 10 16 0.00 0.00
10:53 pm 22:53 Clear 81 27.2 55 12.8 41 41 SSE 18 30 29.93 1014 10 16 0.00 0.00
11:53 pm 23:53 Clear 80 26.7 55 12.8 42 42 SSE 23 37 29.94 1014 10 16 0.00 0.00

Powered by AerisWeather